| time (UTC) | temp F | wind direction | speed MPH | gust MPH | rain 1hr in | rain 24hr in | rain mn in | humidity % | barometer mb |
| 20260503193304 | 62 | 252 | 4.0 | 15.0 | 0.00 | 0.00 | 0.00 | 43 | 1010.5 |
| 20260503192804 | 61 | 247 | 5.0 | 12.0 | 0.00 | 0.00 | 0.00 | 45 | 1010.6 |
| 20260503192305 | 61 | 238 | 3.0 | 10.0 | 0.00 | 0.00 | 0.00 | 43 | 1010.7 |
| 20260503191805 | 61 | 249 | 3.0 | 18.0 | 0.00 | 0.00 | 0.00 | 45 | 1010.8 |
| 20260503191304 | 61 | 276 | 5.0 | 14.0 | 0.00 | 0.00 | 0.00 | 43 | 1010.9 |
| 20260503190805 | 61 | 226 | 5.0 | 13.0 | 0.00 | 0.00 | 0.00 | 44 | 1011.0 |
| 20260503190305 | 61 | 248 | 4.0 | 8.0 | 0.00 | 0.00 | 0.00 | 44 | 1011.1 |
| 20260503185804 | 61 | 216 | 5.0 | 13.0 | 0.00 | 0.00 | 0.00 | 42 | 1011.0 |
| 20260503184805 | 61 | 225 | 5.0 | 12.0 | 0.00 | 0.00 | 0.00 | 43 | 1011.2 |
| 20260503184304 | 61 | 222 | 7.0 | 20.0 | 0.00 | 0.00 | 0.00 | 41 | 1011.2 |
| 20260503183804 | 62 | 237 | 5.0 | 12.0 | 0.00 | 0.00 | 0.00 | 42 | 1011.3 |
| 20260503183304 | 62 | 227 | 7.0 | 20.0 | 0.00 | 0.00 | 0.00 | 42 | 1011.4 |
| 20260503182804 | 62 | 232 | 7.0 | 18.0 | 0.00 | 0.00 | 0.00 | 41 | 1011.4 |
| 20260503182305 | 62 | 241 | 6.0 | 13.0 | 0.00 | 0.00 | 0.00 | 41 | 1011.5 |
| 20260503181804 | 62 | 259 | 5.0 | 12.0 | 0.00 | 0.00 | 0.00 | 44 | 1011.4 |
| 20260503180804 | 61 | 283 | 5.0 | 10.0 | 0.00 | 0.00 | 0.00 | 43 | 1011.7 |
| 20260503180304 | 62 | 294 | 6.0 | 17.0 | 0.00 | 0.00 | 0.00 | 39 | 1011.7 |
| 20260503175305 | 61 | 240 | 7.0 | 21.0 | 0.00 | 0.00 | 0.00 | 40 | 1011.8 |
| 20260503173804 | 61 | 224 | 6.0 | 12.0 | 0.00 | 0.00 | 0.00 | 44 | 1012.2 |
| 20260503172804 | 60 | 285 | 5.0 | 12.0 | 0.00 | 0.00 | 0.00 | 44 | 1012.2 |
| 20260503172305 | 60 | 241 | 6.0 | 12.0 | 0.00 | 0.00 | 0.00 | 43 | 1012.3 |
| 20260503171804 | 61 | 266 | 4.0 | 17.0 | 0.00 | 0.00 | 0.00 | 45 | 1012.5 |
| 20260503170804 | 61 | 247 | 6.0 | 14.0 | 0.00 | 0.00 | 0.00 | 45 | 1012.6 |
| 20260503170304 | 60 | 210 | 6.0 | 12.0 | 0.00 | 0.00 | 0.00 | 45 | 1012.7 |
| 20260503150805 | 56 | 242 | 5.0 | 9.0 | 0.00 | 0.00 | 0.00 | 48 | 1013.9 |
| 20260503150304 | 56 | 258 | 5.0 | 14.0 | 0.00 | 0.00 | 0.00 | 46 | 1013.9 |
| 20260503140305 | 55 | 253 | 6.0 | 13.0 | 0.00 | 0.00 | 0.00 | 50 | 1014.0 |
| 20260503131304 | 49 | 245 | 2.0 | 8.0 | 0.00 | 0.00 | 0.00 | 63 | 1014.3 |
| 20260503130804 | 48 | 218 | 2.0 | 9.0 | 0.00 | 0.00 | 0.00 | 64 | 1014.4 |
| 20260503130304 | 47 | 258 | 2.0 | 3.0 | 0.00 | 0.00 | 0.00 | 66 | 1014.4 |
| 20260503110804 | 36 | 187 | 1.0 | 2.0 | 0.00 | 0.00 | 0.00 | 77 | 1014.5 |
| 20260503110305 | 36 | 188 | 1.0 | 3.0 | 0.00 | 0.00 | 0.00 | 77 | 1014.5 |
| 20260503090304 | 31 | 243 | 0.0 | 0.0 | 0.00 | 0.00 | 0.00 | 85 | 1015.2 |
| 20260503081304 | 31 | 243 | 0.0 | 0.0 | 0.00 | 0.00 | 0.00 | 89 | 1015.3 |
| 20260503080304 | 31 | 243 | 0.0 | 2.0 | 0.00 | 0.00 | 0.00 | 89 | 1015.3 |
| 20260503072305 | 32 | 243 | 0.0 | 0.0 | 0.00 | 0.00 | 0.00 | 90 | 1015.4 |
| 20260503071804 | 32 | 243 | 0.0 | 0.0 | 0.00 | 0.00 | 0.00 | 90 | 1015.4 |
| 20260503071304 | 32 | 243 | 0.0 | 0.0 | 0.00 | 0.00 | 0.00 | 90 | 1015.4 |
| 20260503070803 | 32 | 243 | 0.0 | 0.0 | 0.00 | 0.00 | 0.00 | 90 | 1015.4 |
| 20260503070304 | 32 | 243 | 0.0 | 0.0 | 0.00 | 0.00 | 0.00 | 90 | 1015.5 |
| 20260503060303 | 30 | 243 | 0.0 | 0.0 | 0.00 | 0.00 | 0.00 | 89 | 1015.8 |
| 20260503054804 | 30 | 243 | 0.0 | 0.0 | 0.00 | 0.00 | 0.00 | 89 | 1015.9 |
| 20260503054304 | 30 | 243 | 0.0 | 0.0 | 0.00 | 0.00 | 0.00 | 89 | 1016.0 |
| 20260503053304 | 30 | 243 | 0.0 | 0.0 | 0.00 | 0.00 | 0.00 | 88 | 1016.0 |
| 20260503052804 | 30 | 243 | 0.0 | 0.0 | 0.00 | 0.00 | 0.00 | 88 | 1016.0 |
| 20260503052305 | 30 | 243 | 0.0 | 0.0 | 0.00 | 0.00 | 0.00 | 88 | 1016.1 |
| 20260503051804 | 30 | 243 | 0.0 | 0.0 | 0.00 | 0.00 | 0.00 | 88 | 1016.1 |
| 20260503051304 | 30 | 243 | 0.0 | 0.0 | 0.00 | 0.00 | 0.00 | 88 | 1016.1 |
| 20260503050805 | 31 | 243 | 0.0 | 0.0 | 0.00 | 0.00 | 0.00 | 88 | 1016.1 |
| 20260503050303 | 31 | 243 | 0.0 | 0.0 | 0.00 | 0.00 | 0.00 | 88 | 1016.2 |
| 20260503045804 | 31 | 243 | 0.0 | 0.0 | 0.00 | 0.00 | 0.00 | 88 | 1016.2 |
| 20260503045305 | 31 | 243 | 0.0 | 0.0 | 0.00 | 0.00 | 0.00 | 88 | 1016.2 |
| 20260503044804 | 31 | 243 | 0.0 | 0.0 | 0.00 | 0.00 | 0.00 | 87 | 1016.3 |
| 20260503044304 | 31 | 243 | 0.0 | 0.0 | 0.00 | 0.00 | 0.00 | 87 | 1016.3 |
| 20260503043805 | 31 | 243 | 0.0 | 0.0 | 0.00 | 0.00 | 0.00 | 87 | 1016.3 |
| 20260503043304 | 31 | 243 | 0.0 | 0.0 | 0.00 | 0.00 | 0.00 | 87 | 1016.2 |
| 20260503042804 | 32 | 243 | 0.0 | 0.0 | 0.00 | 0.00 | 0.00 | 87 | 1016.2 |
| 20260503042305 | 32 | 243 | 0.0 | 0.0 | 0.00 | 0.00 | 0.00 | 87 | 1016.2 |
| 20260503041803 | 32 | 243 | 0.0 | 0.0 | 0.00 | 0.00 | 0.00 | 87 | 1016.2 |
| 20260503041304 | 32 | 243 | 0.0 | 0.0 | 0.00 | 0.00 | 0.00 | 86 | 1016.3 |
| 20260503040827 | 32 | 243 | 0.0 | 0.0 | 0.00 | 0.00 | 0.00 | 86 | 1016.3 |
| 20260503040304 | 32 | 243 | 0.0 | 1.0 | 0.00 | 0.00 | 0.00 | 86 | 1016.4 |
| 20260503035804 | 32 | 243 | 0.0 | 0.0 | 0.00 | 0.00 | 0.00 | 85 | 1016.4 |
| 20260503035305 | 32 | 243 | 0.0 | 0.0 | 0.00 | 0.00 | 0.00 | 85 | 1016.4 |
| 20260503034804 | 32 | 243 | 0.0 | 0.0 | 0.00 | 0.00 | 0.00 | 85 | 1016.4 |
| 20260503034304 | 32 | 243 | 0.0 | 0.0 | 0.00 | 0.00 | 0.00 | 85 | 1016.4 |
| 20260503033804 | 33 | 243 | 0.0 | 0.0 | 0.00 | 0.00 | 0.00 | 85 | 1016.4 |
| 20260503033304 | 33 | 243 | 0.0 | 0.0 | 0.00 | 0.00 | 0.00 | 84 | 1016.5 |
| 20260503032304 | 33 | 243 | 0.0 | 0.0 | 0.00 | 0.00 | 0.00 | 84 | 1016.5 |
| 20260503031804 | 33 | 243 | 0.0 | 0.0 | 0.00 | 0.00 | 0.00 | 83 | 1016.5 |
| 20260503031304 | 33 | 243 | 0.0 | 0.0 | 0.00 | 0.00 | 0.00 | 83 | 1016.5 |
| 20260503030304 | 34 | 243 | 0.0 | 0.0 | 0.00 | 0.00 | 0.00 | 82 | 1016.5 |
| 20260503025305 | 34 | 243 | 0.0 | 0.0 | 0.00 | 0.00 | 0.00 | 81 | 1016.5 |
| 20260503024804 | 34 | 243 | 0.0 | 0.0 | 0.00 | 0.00 | 0.00 | 81 | 1016.6 |
| 20260503024304 | 35 | 243 | 0.0 | 0.0 | 0.00 | 0.00 | 0.00 | 81 | 1016.7 |
| 20260503023804 | 35 | 243 | 0.0 | 0.0 | 0.00 | 0.00 | 0.00 | 81 | 1016.6 |
| 20260503023304 | 35 | 243 | 0.0 | 0.0 | 0.00 | 0.00 | 0.00 | 80 | 1016.6 |
| 20260503022804 | 36 | 243 | 0.0 | 0.0 | 0.00 | 0.00 | 0.00 | 79 | 1016.6 |
| 20260503021305 | 36 | 243 | 0.0 | 0.0 | 0.00 | 0.00 | 0.00 | 77 | 1016.5 |
| 20260503015805 | 37 | 243 | 0.0 | 0.0 | 0.00 | 0.00 | 0.00 | 75 | 1016.4 |
| 20260503015305 | 38 | 243 | 0.0 | 0.0 | 0.00 | 0.00 | 0.00 | 75 | 1016.4 |
| 20260503014805 | 38 | 243 | 0.0 | 0.0 | 0.00 | 0.00 | 0.00 | 74 | 1016.4 |
| 20260503014304 | 38 | 243 | 0.0 | 0.0 | 0.00 | 0.00 | 0.00 | 71 | 1016.4 |
| 20260503013807 | 39 | 243 | 0.0 | 0.0 | 0.00 | 0.00 | 0.00 | 71 | 1016.3 |
| 20260503013306 | 39 | 243 | 0.0 | 0.0 | 0.00 | 0.00 | 0.00 | 71 | 1016.3 |
| 20260503012806 | 39 | 243 | 0.0 | 0.0 | 0.00 | 0.00 | 0.00 | 71 | 1016.3 |
| 20260503012306 | 39 | 243 | 0.0 | 0.0 | 0.00 | 0.00 | 0.00 | 71 | 1016.3 |
| 20260503011805 | 40 | 243 | 0.0 | 0.0 | 0.00 | 0.00 | 0.00 | 69 | 1016.3 |
| 20260503011306 | 40 | 243 | 0.0 | 0.0 | 0.00 | 0.00 | 0.00 | 68 | 1016.3 |
| 20260503010806 | 41 | 243 | 0.0 | 0.0 | 0.00 | 0.00 | 0.00 | 67 | 1016.3 |
| 20260503010305 | 41 | 243 | 0.0 | 0.0 | 0.00 | 0.00 | 0.00 | 65 | 1016.3 |
| 20260503005305 | 42 | 243 | 0.0 | 0.0 | 0.00 | 0.00 | 0.00 | 63 | 1016.2 |
| 20260503004805 | 43 | 243 | 0.0 | 0.0 | 0.00 | 0.00 | 0.00 | 63 | 1016.1 |
| 20260503004305 | 43 | 243 | 0.0 | 0.0 | 0.00 | 0.00 | 0.00 | 60 | 1016.1 |
| 20260503003805 | 44 | 243 | 0.0 | 0.0 | 0.00 | 0.00 | 0.00 | 58 | 1016.1 |
| 20260503003305 | 45 | 243 | 0.0 | 2.0 | 0.00 | 0.00 | 0.00 | 58 | 1016.1 |
| 20260503002805 | 45 | 243 | 0.0 | 0.0 | 0.00 | 0.00 | 0.00 | 57 | 1016.1 |
| 20260503002306 | 45 | 243 | 0.0 | 0.0 | 0.00 | 0.00 | 0.00 | 56 | 1016.1 |
| 20260503001805 | 46 | 243 | 0.0 | 1.0 | 0.00 | 0.00 | 0.00 | 55 | 1016.1 |
| 20260503001306 | 46 | 243 | 0.0 | 3.0 | 0.00 | 0.00 | 0.00 | 54 | 1016.1 |
| 20260503000806 | 46 | 243 | 1.0 | 3.0 | 0.00 | 0.00 | 0.00 | 54 | 1016.0 |
| 20260503000305 | 46 | 248 | 0.0 | 2.0 | 0.00 | 0.00 | 0.00 | 54 | 1016.0 |
| 20260502234805 | 46 | 248 | 1.0 | 5.0 | 0.00 | 0.00 | 0.00 | 52 | 1016.1 |
| 20260502234305 | 47 | 248 | 2.0 | 3.0 | 0.00 | 0.00 | 0.00 | 52 | 1016.1 |
| 20260502233805 | 47 | 253 | 2.0 | 3.0 | 0.00 | 0.00 | 0.00 | 52 | 1016.1 |
| 20260502232806 | 47 | 226 | 2.0 | 6.0 | 0.00 | 0.00 | 0.00 | 50 | 1016.1 |
| 20260502232305 | 47 | 241 | 2.0 | 8.0 | 0.00 | 0.00 | 0.00 | 52 | 1016.1 |
| 20260502231805 | 47 | 229 | 2.0 | 5.0 | 0.00 | 0.00 | 0.00 | 50 | 1016.2 |
| 20260502231305 | 47 | 262 | 2.0 | 5.0 | 0.00 | 0.00 | 0.00 | 50 | 1016.2 |
| 20260502230806 | 47 | 279 | 1.0 | 3.0 | 0.00 | 0.00 | 0.00 | 51 | 1016.2 |
| 20260502225806 | 47 | 290 | 0.0 | 2.0 | 0.00 | 0.00 | 0.00 | 52 | 1016.3 |
| 20260502224806 | 47 | 306 | 1.0 | 3.0 | 0.00 | 0.00 | 0.00 | 51 | 1016.3 |
| 20260502224305 | 47 | 306 | 1.0 | 3.0 | 0.00 | 0.00 | 0.00 | 50 | 1016.3 |
| 20260502223805 | 47 | 304 | 2.0 | 6.0 | 0.00 | 0.00 | 0.00 | 49 | 1016.3 |
| 20260502223305 | 48 | 309 | 2.0 | 3.0 | 0.00 | 0.00 | 0.00 | 48 | 1016.3 |
| 20260502222806 | 48 | 283 | 1.0 | 3.0 | 0.00 | 0.00 | 0.00 | 51 | 1016.3 |
| 20260502222305 | 48 | 290 | 2.0 | 6.0 | 0.00 | 0.00 | 0.00 | 48 | 1016.3 |
| 20260502221806 | 48 | 324 | 1.0 | 5.0 | 0.00 | 0.00 | 0.00 | 49 | 1016.2 |
| 20260502221305 | 48 | 288 | 2.0 | 5.0 | 0.00 | 0.00 | 0.00 | 49 | 1016.2 |
| 20260502220805 | 48 | 339 | 1.0 | 5.0 | 0.00 | 0.00 | 0.00 | 51 | 1016.2 |
| 20260502220305 | 48 | 262 | 1.0 | 6.0 | 0.00 | 0.00 | 0.00 | 50 | 1016.2 |
| 20260502215305 | 47 | 324 | 1.0 | 3.0 | 0.00 | 0.00 | 0.00 | 51 | 1016.2 |
| 20260502214805 | 47 | 189 | 2.0 | 3.0 | 0.00 | 0.00 | 0.00 | 51 | 1016.2 |
| 20260502214305 | 47 | 306 | 1.0 | 5.0 | 0.00 | 0.00 | 0.00 | 50 | 1016.3 |
| 20260502213305 | 47 | 235 | 2.0 | 3.0 | 0.00 | 0.00 | 0.00 | 49 | 1016.3 |
| 20260502212806 | 47 | 280 | 2.0 | 6.0 | 0.00 | 0.00 | 0.00 | 48 | 1016.3 |
| 20260502212305 | 47 | 296 | 1.0 | 3.0 | 0.00 | 0.00 | 0.00 | 50 | 1016.3 |
| 20260502211805 | 47 | 269 | 2.0 | 5.0 | 0.00 | 0.00 | 0.00 | 50 | 1016.3 |
| 20260502211306 | 47 | 259 | 1.0 | 3.0 | 0.00 | 0.00 | 0.00 | 50 | 1016.4 |
| 20260502210805 | 47 | 322 | 1.0 | 3.0 | 0.00 | 0.00 | 0.00 | 48 | 1016.4 |
| 20260502210305 | 47 | 311 | 2.0 | 5.0 | 0.00 | 0.00 | 0.00 | 47 | 1016.5 |
| 20260502205805 | 47 | 308 | 2.0 | 3.0 | 0.00 | 0.00 | 0.00 | 48 | 1016.4 |
| 20260502205307 | 47 | 301 | 3.0 | 6.0 | 0.00 | 0.00 | 0.00 | 47 | 1016.4 |
| 20260502204805 | 47 | 310 | 2.0 | 5.0 | 0.00 | 0.00 | 0.00 | 48 | 1016.4 |
| 20260502204306 | 48 | 295 | 1.0 | 5.0 | 0.00 | 0.00 | 0.00 | 47 | 1016.5 |
| 20260502203805 | 48 | 332 | 1.0 | 5.0 | 0.00 | 0.00 | 0.00 | 49 | 1016.4 |
| 20260502203305 | 48 | 328 | 1.0 | 5.0 | 0.00 | 0.00 | 0.00 | 50 | 1016.6 |
| 20260502202805 | 47 | 309 | 2.0 | 3.0 | 0.00 | 0.00 | 0.00 | 48 | 1016.5 |
| 20260502202305 | 47 | 307 | 2.0 | 5.0 | 0.00 | 0.00 | 0.00 | 50 | 1016.6 |
| 20260502201805 | 47 | 304 | 2.0 | 7.0 | 0.00 | 0.00 | 0.00 | 48 | 1016.7 |
| 20260502201305 | 47 | 314 | 2.0 | 3.0 | 0.00 | 0.00 | 0.00 | 48 | 1016.7 |
| 20260502200805 | 47 | 303 | 1.0 | 3.0 | 0.00 | 0.00 | 0.00 | 51 | 1016.7 |
| 20260502200305 | 47 | 308 | 2.0 | 6.0 | 0.00 | 0.00 | 0.00 | 50 | 1016.8 |
| 20260502195305 | 47 | 305 | 2.0 | 6.0 | 0.00 | 0.00 | 0.00 | 48 | 1016.9 |
| 20260502194805 | 47 | 282 | 4.0 | 7.0 | 0.00 | 0.00 | 0.00 | 46 | 1016.9 |
| 20260502194305 | 47 | 277 | 2.0 | 6.0 | 0.00 | 0.00 | 0.00 | 49 | 1017.0 |
| 20260502193805 | 47 | 287 | 3.0 | 5.0 | 0.00 | 0.00 | 0.00 | 48 | 1017.0 |